Regional Weather Roundup
Issued by NWS

Home | Current Version | Previous Version | Graphics & Text | Print | Product List | Glossary On
Versions: 1 2 3 4 5 6 7 8 9 10 11 12 13 14 15 16 17 18 19 20 21 22 23 24 25 26 27 28 29 30 31 32 33 34 35 36 37 38 39 40 41 42 43 44 45 46 47 48 49 50
000
ASUS43 KLSX 260407
RWRMO

WEATHER SUMMARY FOR MISSOURI
NATIONAL WEATHER SERVICE SPRINGFIELD MO
1100 PM CDT SAT APR 25 2015

NOTE: "FAIR" INDICATES FEW OR NO CLOUDS BELOW 12,000 FEET WITH NO
       SIGNIFICANT WEATHER AND/OR OBSTRUCTIONS TO VISIBILITY.
       CURRENT SKY AND/OR WEATHER CONDITIONS ARE NOT AVAILABLE FOR
       CHILLICOTHE AND FARMINGTON.

MOZ001>031-035>038-043-044-053-054-260500-
...NORTHERN AND WESTERN MISSOURI...

CITY           SKY/WX    TMP DP  RH WIND       PRES   REMARKS
KANSAS CTY INT CLOUDY    48  48 100 N8        29.80R
KANSAS C DTWN  CLOUDY    51  47  86 N8        29.80R FOG
LEE`S SUMMIT   CLOUDY    49  48  97 N10       29.80R FOG
ST JOSEPH      CLOUDY    49  47  93 NE7       29.82R
CHILLICOTHE      N/A     50  45  83 NE12G20   29.82R
KIRKSVILLE     CLOUDY    47  45  93 NE14      29.82R

$$
MOZ066>068-077>081-088>096-101>105-260500-
...SOUTHWEST MISSOURI...

CITY           SKY/WX    TMP DP  RH WIND       PRES   REMARKS
SPRINGFIELD    CLOUDY    57  52  83 N13       29.72R
JOPLIN         MOCLDY    58  54  86 N8        29.74R

$$
MOZ032>034-039>042-045>050-055>058-069>072-260500-
...CENTRAL MISSOURI...

CITY           SKY/WX    TMP DP  RH WIND       PRES   REMARKS
COLUMBIA       CLOUDY    50  48  93 NE15      29.76R
JEFFERSON CITY CLOUDY    52  49  89 N7        29.75R FOG
ROLLA          CLOUDY    54  52  93 NE9       29.70R
SEDALIA        LGT RAIN  52  49  89 N10       29.79R
WARRENSBURG    CLOUDY    50  48  93 N8        29.79R FOG
OSAGE BEACH    CLOUDY    55  52  88 N8        29.74R

$$
MOZ051-052-059>065-260500-
...EAST CENTRAL MISSOURI...

CITY           SKY/WX    TMP DP  RH WIND       PRES   REMARKS
ST LOUIS INTL  CLOUDY    51  47  86 N10G20    29.74R FOG
SPIRIT OF STL  LGT RAIN  50  48  93 NE13      29.73R FOG
ST CHARLES     CLOUDY    49  46  90 NE14      29.75R

$$
MOZ072>076-082>087-097>100-106>115-260500-
...SOUTH CENTRAL AND SOUTHEAST MISSOURI...

CITY           SKY/WX    TMP DP  RH WIND       PRES   REMARKS
CAPE GIRARDEAU CLOUDY    63  59  87 N10       29.62R
FARMINGTON     CLOUDY    55  54  94 N8        29.70R
POPLAR BLUFF   CLOUDY    66  57  72 N5        29.61R
WEST PLAINS    CLEAR     62  52  69 NW6       29.68R

$$



USA.gov is the U.S. government's official web portal to all federal, state and local government web resources and services.